STARLINK-2255 (48597 NORAD) Tracking and Keplerian Element Data

This shows tracking and keplerian element data for the satellite.

Feedback or suggestion? Click here.




ElementValue
Catalog48597
NameSTARLINK-2255
Epoch Orbit358
Epoch Day214.91667824
Epoch Year2021
RAAN122.4045
Inclination53.0549
Eccentricity0.0001887
Argument of Perigee77.667
Mean Anonmoly56.2024
Mean Motion15.06408753
Decay Rate-0.00030718
L11 48597U 21041AW 21214.91667824 -.00030718 00000-0 -20517-2 0 9992
L22 48597 53.0549 122.4045 0001887 77.6670 56.2024 15.06408753 3580

Live tracking and technical data element details for STARLINK-2255 (NORAD 48597). STARLINK-2255 can be tracked NOW for your location showing map with azimuth and elevation plus other details from your city location.

Track the satellite on the map from your city or location and see movement details for azimuth, elevation, latitude, longitude, range, height, and movement on the map or in text.







IsCatalogInMostPopularTable: catalog: 48597, numindb: 21
Update: records affected: 1



GetName: 48597 STARLINK-2255

Hit Count: updated at: Tue, 03 Aug 2021 21:30:53 GMT